Regional Weather Roundup
Issued by NWS State College, PA

Home | Current Version | Previous Version | Text Only | Print | Product List | Glossary On
Versions: 1 2 3 4 5 6 7 8 9 10 11 12 13 14 15 16 17 18 19 20 21 22 23 24 25 26 27 28 29 30 31 32 33 34 35 36 37 38 39 40 41 42 43 44 45 46 47 48 49 50
000
ASUS41 KCTP 251310
RWRCTP

REGIONAL WEATHER ROUNDUP
NATIONAL WEATHER SERVICE STATE COLLEGE PA
900 AM EDT WED MAY 25 2016

Note: "fair" indicates few or no clouds below 12,000 feet with no
significant weather and/or obstructions to visibility.

* = STATION THAT DOES NOT REPORT PRECIPITATION /E.G. RAIN...SNOW...ETC/
    THUNDER OR FOG.

PAZ002>004-007>009-013>016-020>023-029>032-251400-
WESTERN PENNSYLVANIA

CITY           SKY/WX    TMP DP  RH WIND       PRES   REMARKS
ERIE           MOSUNNY   74  50  42 SW8       30.10S
MEADVILLE      MOSUNNY   65  51  60 S6        30.14S
FRANKLIN*      MOSUNNY   66  50  55 SW7       30.17F
NEW CASTLE     FAIR      65  55  70 CALM      30.16S
BEAVER COUNTY  SUNNY     66  54  63 SW5       30.16S
BUTLER*        SUNNY     64  52  63 SW5       30.19F
PITTSBURGH INT CLOUDY    69  50  50 SW6       30.16S
PITTSBURGH     CLOUDY    66  52  60 S3        30.17S
INDIANA*       SUNNY     66  55  68 SW7       30.21F
LATROBE        SUNNY     66  57  72 SW12      30.19S
WASHINGTON CO* CLOUDY    66  55  68 SW6       30.18S
$$

PAZ004>006-010>012-017>019-024>028-033>037-041-042-045-046-049>053-251400-
CENTRAL PENNSYLVANIA

CITY           SKY/WX    TMP DP  RH WIND       PRES   REMARKS
BRADFORD       CLOUDY    66  46  48 VRB6      30.17S
DUBOIS         SUNNY     64  51  62 W8        30.17R
CLEARFIELD     SUNNY     61  51  70 S6        30.17S
JOHNSTOWN      SUNNY     66  46  48 SW7       30.20S
ALTOONA        SUNNY     68  51  54 SW7       30.18S
STATE COLLEGE  SUNNY     66  54  63 CALM      30.16S
WILLIAMSPORT   SUNNY     62  47  57 CALM      30.13S
SELINSGROVE    SUNNY     63  51  65 SE5       30.14S
FT INDIANTOWN  NOT AVBL
CAPITAL CITY   SUNNY     71  52  50 W9        30.14R
HARRISBURG     SUNNY     70  55  59 CALM      30.13S
YORK           SUNNY     73  54  51 W6        30.15R
$$

PAZ038>040-043-044-047-048-054-055-060>062-067>071-251400-
EASTERN PENNSYLVANIA

CITY           SKY/WX    TMP DP  RH WIND       PRES   REMARKS
SCRANTON       SUNNY     61  47  59 CALM      30.13S
MOUNT POCONO   SUNNY     62  40  44 W8        30.14R
ALLENTOWN      SUNNY     66  53  63 SW5       30.12R
QUAKERTOWN*    SUNNY     70  54  56 CALM      30.13R
READING        SUNNY     68  51  54 CALM      30.13R
LANCASTER      SUNNY     69  53  56 W7        30.14S
COATESVILLE    SUNNY     72  50  46 W12       30.16R
POTTSTOWN      SUNNY     67  54  63 W5        30.14R
BLUE BELL      SUNNY     68  52  56 W3        30.12R
DOYLESTOWN     SUNNY     67  53  61 SW5       30.11R
WILLOW GROVE   NOT AVBL
NORTH PHILA    SUNNY     75  50  41 NW7       30.12R
PHILADELPHIA   MOSUNNY   70  53  54 SW6       30.12R
$$



USA.gov is the U.S. government's official web portal to all federal, state and local government web resources and services.